N1IJV-10 Weather Reports


time (UTC)temp
C
wind
direction
speed
KPH
gust
KPH
rain 1hr
cm
rain 24hr
cm
rain mn
cm
humidity
%
barometer
mb
20260906073145 20 148 0.0 0.0 0.00 0.00 0.00 98 1014.4
20260906072641 20 147 0.0 0.0 0.00 0.00 0.00 98 1014.3
20260906072136 20 147 0.0 0.0 0.00 0.00 0.00 98 1014.5
20260906071633 20 147 0.0 0.0 0.00 0.00 0.00 98 1014.4
20260906071132 20 147 0.0 0.0 0.00 0.00 0.00 98 1014.5
20260906070629 20 147 0.0 0.0 0.00 0.00 0.00 98 1014.6
20260906070125 20 147 0.0 0.0 0.00 0.00 0.00 98 1014.4
20260906065624 20 152 0.0 0.0 0.00 0.00 0.00 98 1014.5
20260906065120 20 149 0.0 0.0 0.00 0.00 0.00 97 1014.8
20260906064615 20 147 0.0 0.0 0.00 0.00 0.00 97 1014.5
20260906064110 20 147 0.0 0.0 0.00 0.00 0.00 97 1014.4
20260906063605 20 146 0.0 0.0 0.00 0.00 0.00 96 1014.3
20260906063101 21 147 0.0 0.0 0.00 0.00 0.00 96 1014.3
20260906062556 21 147 0.0 0.0 0.00 0.00 0.00 95 1014.3
20260906062055 21 150 0.0 0.0 0.00 0.00 0.00 95 1014.3
20260906061552 21 146 0.0 0.0 0.00 0.00 0.00 95 1014.4
20260906061051 21 148 0.0 0.0 0.00 0.00 0.00 94 1014.5
20260906060548 21 147 0.0 1.6 0.00 0.00 0.00 94 1014.7
20260906060044 21 147 1.6 1.6 0.00 0.00 0.00 94 1014.4
20260906055540 21 149 1.6 1.6 0.00 0.00 0.00 94 1014.3
20260906055035 21 147 0.0 1.6 0.00 0.00 0.00 94 1014.3
20260906054530 21 147 1.6 3.2 0.00 0.00 0.00 93 1014.2
20260906054025 21 147 1.6 1.6 0.00 0.00 0.00 93 1014.3
20260906053522 21 147 0.0 1.6 0.00 0.00 0.00 93 1014.0
20260906053017 21 147 0.0 4.8 0.00 0.00 0.00 93 1014.2
20260906052513 21 147 0.0 3.2 0.00 0.00 0.00 93 1014.2
20260906052010 22 147 0.0 1.6 0.00 0.00 0.00 92 1014.0
20260906051505 22 140 1.6 1.6 0.00 0.00 0.00 93 1014.0
20260906051000 21 148 0.0 3.2 0.00 0.00 0.00 93 1014.1
20260906050500 21 147 3.2 3.2 0.00 0.00 0.00 93 1014.2
20260906045954 21 147 0.0 3.2 0.00 0.03 0.03 93 1013.9
20260906045453 22 150 3.2 4.8 0.00 0.03 0.03 93 1014.0
20260906044949 22 148 1.6 3.2 0.00 0.03 0.03 93 1013.9
20260906044444 22 149 1.6 1.6 0.00 0.03 0.03 92 1013.9
20260906043940 22 147 1.6 3.2 0.00 0.03 0.03 92 1013.7
20260906043435 22 147 1.6 3.2 0.00 0.03 0.03 92 1013.9
20260906042931 22 150 1.6 1.6 0.00 0.03 0.03 92 1013.7
20260906042430 22 149 0.0 3.2 0.00 0.03 0.03 92 1013.6
20260906041925 22 150 1.6 3.2 0.00 0.03 0.03 92 1013.8
20260906041421 22 147 0.0 1.6 0.00 0.03 0.03 92 1013.7
20260906040920 22 149 0.0 3.2 0.00 0.03 0.03 92 1013.7
20260906040416 22 145 0.0 3.2 0.00 0.03 0.03 92 1013.3
20260906035911 22 148 1.6 1.6 0.00 0.03 0.03 92 1013.5
20260906035406 22 148 0.0 1.6 0.00 0.03 0.03 91 1013.4
20260906034901 22 154 1.6 4.8 0.00 0.03 0.03 91 1013.4
20260906034356 22 148 1.6 3.2 0.00 0.03 0.03 91 1013.4
20260906033852 22 147 3.2 4.8 0.00 0.03 0.03 91 1013.3
20260906033351 22 147 1.6 4.8 0.00 0.03 0.03 90 1013.3
20260906032848 22 140 11.3 12.9 0.00 0.03 0.03 90 1013.3
20260906032343 22 145 3.2 8.0 0.00 0.03 0.03 90 1013.1
20260906031838 22 153 4.8 8.0 0.00 0.03 0.03 89 1013.1
20260906031333 22 149 1.6 3.2 0.00 0.03 0.03 89 1013.2
20260906030833 22 151 0.0 3.2 0.00 0.03 0.03 89 1013.3
20260906030329 22 147 3.2 4.8 0.00 0.03 0.03 89 1013.2
20260906025823 22 149 4.8 4.8 0.00 0.03 0.03 89 1013.2
20260906025317 22 152 4.8 12.9 0.00 0.03 0.03 89 1013.0
20260906024816 22 147 1.6 11.3 0.00 0.03 0.03 89 1013.4
20260906024315 22 145 6.4 11.3 0.00 0.03 0.03 89 1013.3
20260906023811 22 151 1.6 9.7 0.00 0.03 0.03 89 1013.3
20260906023306 22 143 3.2 9.7 0.00 0.03 0.03 89 1013.4
20260906022802 22 149 6.4 8.0 0.00 0.03 0.03 89 1013.4
20260906022257 22 186 4.8 8.0 0.00 0.03 0.03 89 1013.1
20260906021753 22 133 4.8 8.0 0.00 0.03 0.03 89 1013.2
20260906021252 22 149 3.2 3.2 0.00 0.03 0.03 89 1013.2
20260906020747 22 152 1.6 9.7 0.00 0.03 0.03 89 1012.8
20260906020247 22 142 3.2 11.3 0.00 0.03 0.03 89 1013.0
20260906015741 22 150 8.0 11.3 0.00 0.03 0.03 89 1013.3
20260906015239 22 141 3.2 4.8 0.00 0.03 0.03 90 1013.3
20260906014734 22 147 3.2 4.8 0.00 0.03 0.03 91 1013.5
20260906014230 22 152 1.6 4.8 0.00 0.03 0.03 91 1013.1
20260906013726 22 145 1.6 4.8 0.00 0.03 0.03 91 1013.2
20260906013226 22 135 4.8 9.7 0.00 0.03 0.03 90 1013.2
20260906012721 22 149 4.8 8.0 0.00 0.03 0.03 90 1013.6
20260906012216 22 150 3.2 12.9 0.00 0.03 0.03 89 1013.3
20260906011711 22 147 0.0 3.2 0.00 0.03 0.03 89 1013.1
20260906011206 22 149 3.2 4.8 0.00 0.03 0.03 89 1013.3
20260906010701 22 148 3.2 8.0 0.00 0.03 0.03 88 1013.1
20260906010158 22 148 8.0 12.9 0.00 0.03 0.03 88 1013.2
20260906005657 22 145 1.6 8.0 0.00 0.03 0.03 88 1013.0
20260906005156 22 147 1.6 4.8 0.00 0.03 0.03 89 1013.2
20260906004655 22 149 1.6 8.0 0.00 0.03 0.03 89 1013.2
20260906004151 22 133 4.8 4.8 0.00 0.03 0.03 89 1013.2
20260906003646 22 149 4.8 4.8 0.00 0.03 0.03 90 1013.2
20260906003142 22 147 3.2 4.8 0.00 0.03 0.03 90 1013.1
20260906002636 22 145 4.8 8.0 0.00 0.03 0.03 90 1012.9
20260906002131 22 145 4.8 4.8 0.00 0.03 0.03 90 1012.8
20260906001626 22 145 3.2 12.9 0.00 0.03 0.03 90 1012.8
20260906001126 22 145 4.8 8.0 0.00 0.03 0.03 90 1012.7
20260906000622 22 131 6.4 16.1 0.00 0.03 0.03 89 1012.6
20260906000118 23 144 1.6 4.8 0.00 0.03 0.03 89 1012.4
20260905235616 23 143 4.8 4.8 0.00 0.03 0.03 88 1012.2
20260905235111 23 147 3.2 8.0 0.00 0.03 0.03 87 1012.3
20260905234607 23 145 4.8 8.0 0.00 0.03 0.03 86 1012.4
20260905234102 24 147 4.8 8.0 0.00 0.03 0.03 86 1012.6
20260905233602 24 143 1.6 3.2 0.00 0.03 0.03 85 1012.3
20260905233056 25 141 4.8 14.5 0.00 0.03 0.03 84 1012.1
20260905232552 25 143 8.0 9.7 0.00 0.03 0.03 84 1012.1
20260905232048 25 145 4.8 8.0 0.00 0.03 0.03 84 1012.1
20260905231543 25 147 4.8 11.3 0.00 0.03 0.03 84 1012.3
20260905231039 25 143 4.8 4.8 0.00 0.03 0.03 84 1011.9
20260905230538 25 147 1.6 3.2 0.00 0.03 0.03 84 1011.9
20260905230037 25 143 1.6 3.2 0.00 0.03 0.03 83 1012.1
20260905225531 26 147 1.6 4.8 0.00 0.03 0.03 82 1011.8
20260905225027 26 148 1.6 14.5 0.00 0.03 0.03 81 1011.6
20260905224521 26 149 4.8 11.3 0.00 0.03 0.03 80 1011.5
20260905224021 27 149 4.8 4.8 0.00 0.03 0.03 79 1011.5
20260905223518 27 143 4.8 9.7 0.00 0.03 0.03 78 1011.4
20260905223014 27 147 3.2 8.0 0.00 0.03 0.03 78 1011.5
20260905222514 27 147 0.0 4.8 0.00 0.03 0.03 78 1011.5
20260905222009 27 145 4.8 8.0 0.00 0.03 0.03 76 1011.4
20260905221506 28 148 3.2 4.8 0.00 0.03 0.03 73 1011.3
20260905221001 28 147 3.2 8.0 0.00 0.03 0.03 73 1011.3
20260905220457 28 147 1.6 8.0 0.00 0.03 0.03 74 1011.3
20260905215956 28 137 4.8 8.0 0.00 0.03 0.03 73 1011.6
20260905215452 27 147 0.0 1.6 0.00 0.03 0.03 76 1011.7
20260905214948 27 147 1.6 1.6 0.00 0.03 0.03 77 1011.8
20260905214444 27 150 1.6 4.8 0.00 0.03 0.03 75 1011.6
20260905213944 28 147 1.6 9.7 0.00 0.03 0.03 75 1011.6
20260905213440 28 142 1.6 3.2 0.00 0.03 0.03 75 1011.5
20260905212935 28 150 1.6 4.8 0.00 0.03 0.03 74 1011.4
20260905212430 28 147 0.0 8.0 0.00 0.03 0.03 74 1011.4
20260905211929 29 147 0.0 3.2 0.00 0.03 0.03 73 1011.5
20260905211425 29 147 0.0 1.6 0.00 0.03 0.03 72 1011.5
20260905210921 29 147 1.6 3.2 0.00 0.03 0.03 74 1011.5
20260905210421 28 147 1.6 1.6 0.00 0.03 0.03 73 1011.7
20260905205920 28 147 0.0 0.0 0.00 0.03 0.03 74 1011.5
20260905205415 28 149 1.6 3.2 0.00 0.03 0.03 74 1011.8
20260905204914 28 148 3.2 4.8 0.00 0.03 0.03 76 1011.7
20260905204410 28 147 0.0 1.6 0.00 0.03 0.03 78 1011.5
20260905203909 27 147 1.6 4.8 0.00 0.03 0.03 79 1011.9
20260905203405 27 147 0.0 3.2 0.00 0.03 0.03 81 1011.9
20260905202900 27 160 3.2 8.0 0.00 0.03 0.03 80 1011.8
20260905202355 27 149 1.6 8.0 0.00 0.03 0.03 80 1012.1
20260905201850 26 146 1.6 3.2 0.00 0.03 0.03 83 1011.8
20260905201346 26 141 1.6 3.2 0.00 0.03 0.03 82 1011.7
20260905200840 26 147 0.0 4.8 0.00 0.03 0.03 82 1011.9
20260905200336 26 147 1.6 3.2 0.00 0.03 0.03 82 1011.9
20260905195834 26 142 3.2 4.8 0.00 0.03 0.03 83 1011.9
20260905195329 26 147 1.6 4.8 0.00 0.03 0.03 83 1011.8
20260905194825 26 145 4.8 8.0 0.00 0.03 0.03 83 1012.1
20260905194325 26 149 3.2 3.2 0.00 0.03 0.03 84 1011.9
20260905193824 26 146 3.2 4.8 0.00 0.03 0.03 83 1011.9
20260905193319 26 129 6.4 9.7 0.00 0.03 0.03 83 1012.2
20260905192815 26 148 1.6 3.2 0.00 0.03 0.03 84 1012.1
20260905192311 26 148 1.6 3.2 0.00 0.03 0.03 83 1012.2
20260905191810 26 146 1.6 3.2 0.00 0.03 0.03 83 1011.9
20260905191308 26 149 1.6 8.0 0.00 0.03 0.03 83 1012.3
20260905190807 26 147 1.6 3.2 0.00 0.03 0.03 82 1012.1
20260905190301 27 148 1.6 4.8 0.00 0.03 0.03 82 1012.2
20260905185800 26 162 0.0 3.2 0.00 0.03 0.03 82 1012.3
20260905185254 27 162 3.2 8.0 0.00 0.03 0.03 81 1011.9
20260905184748 27 160 3.2 8.0 0.00 0.03 0.03 81 1012.2
20260905184247 27 161 4.8 4.8 0.00 0.03 0.03 79 1012.1
20260905183741 28 148 0.0 3.2 0.00 0.03 0.03 78 1012.2
20260905183237 27 149 3.2 4.8 0.00 0.03 0.03 79 1012.4
20260905182736 27 147 1.6 3.2 0.00 0.03 0.03 79 1012.3
20260905182236 28 149 1.6 4.8 0.00 0.03 0.03 78 1012.2
20260905181732 28 145 1.6 3.2 0.00 0.03 0.03 79 1012.3
20260905181231 28 149 3.2 11.3 0.00 0.03 0.03 78 1012.2
20260905180726 28 149 0.0 8.0 0.00 0.03 0.03 79 1012.1
20260905180220 27 145 4.8 8.0 0.00 0.03 0.03 79 1012.1
20260905175715 27 147 1.6 4.8 0.00 0.03 0.03 79 1012.1
20260905175209 28 143 6.4 8.0 0.00 0.03 0.03 78 1012.2
20260905174705 27 147 3.2 4.8 0.00 0.03 0.03 79 1011.9
20260905174201 27 149 4.8 8.0 0.00 0.03 0.03 81 1011.9
20260905173657 28 147 3.2 4.8 0.00 0.03 0.03 78 1011.9
20260905173152 29 147 3.2 4.8 0.00 0.03 0.03 77 1011.9
20260905172651 28 147 1.6 4.8 0.00 0.03 0.03 78 1011.8
20260905172145 28 149 3.2 9.7 0.00 0.03 0.03 77 1012.1
20260905171641 28 138 3.2 8.0 0.00 0.03 0.03 78 1011.8
20260905171137 28 147 0.0 4.8 0.00 0.03 0.03 79 1011.9
20260905170634 28 147 1.6 8.0 0.00 0.03 0.03 79 1011.8
20260905170129 29 147 4.8 8.0 0.00 0.03 0.03 76 1012.1
20260905165623 30 148 3.2 3.2 0.00 0.03 0.03 75 1012.1
20260905165119 29 148 1.6 3.2 0.00 0.03 0.03 77 1011.9
20260905164614 30 150 4.8 4.8 0.00 0.03 0.03 74 1012.2
20260905164113 28 149 1.6 3.2 0.00 0.03 0.03 77 1011.9
20260905163609 28 147 3.2 8.0 0.00 0.03 0.03 78 1012.2
20260905163106 28 168 1.6 8.0 0.00 0.03 0.03 79 1012.4
20260905162602 28 149 1.6 4.8 0.00 0.03 0.03 78 1012.4
20260905162101 28 150 3.2 8.0 0.00 0.03 0.03 79 1011.9
20260905161555 28 149 1.6 3.2 0.00 0.03 0.03 78 1012.2
20260905161053 27 149 1.6 3.2 0.00 0.03 0.03 81 1012.3
20260905160552 27 148 1.6 4.8 0.00 0.03 0.03 81 1012.3
20260905160052 27 147 1.6 3.2 0.00 0.03 0.03 82 1012.2
20260905155552 27 147 3.2 4.8 0.00 0.03 0.03 82 1012.2
20260905155050 27 147 4.8 4.8 0.00 0.03 0.03 82 1012.1
20260905154545 28 140 4.8 4.8 0.00 0.03 0.03 81 1012.2
20260905154041 27 148 1.6 3.2 0.00 0.03 0.03 83 1011.8
20260905153537 26 151 3.2 8.0 0.00 0.03 0.03 84 1012.2
20260905153037 27 151 1.6 8.0 0.00 0.03 0.03 83 1012.1
20260905152531 27 150 1.6 4.8 0.00 0.03 0.03 83 1011.8
20260905152027 27 150 1.6 4.8 0.00 0.03 0.03 83 1011.7
20260905151522 27 150 3.2 14.5 0.00 0.03 0.03 83 1011.8
20260905151017 27 149 3.2 4.8 0.00 0.03 0.03 83 1011.8
20260905150512 26 148 0.0 3.2 0.00 0.03 0.03 86 1011.5
20260905150010 26 149 3.2 4.8 0.00 0.03 0.03 87 1011.7
20260905145509 26 149 4.8 4.8 0.00 0.03 0.03 87 1011.4
20260905145003 26 152 8.0 12.9 0.00 0.03 0.03 86 1011.3
20260905144458 26 156 4.8 8.0 0.00 0.03 0.03 86 1011.6
20260905143957 25 148 1.6 11.3 0.00 0.03 0.03 88 1011.4
20260905143456 25 160 4.8 9.7 0.00 0.03 0.03 88 1011.5
20260905142951 25 148 1.6 4.8 0.00 0.03 0.03 89 1011.3
20260905142450 25 149 0.0 4.8 0.00 0.03 0.03 90 1011.5
20260905141945 25 150 3.2 3.2 0.00 0.03 0.03 91 1011.6
20260905141440 25 149 4.8 4.8 0.00 0.03 0.03 92 1011.4
20260905140936 23 149 1.6 4.8 0.00 0.03 0.03 95 1011.3
20260905140431 23 150 0.0 3.2 0.00 0.03 0.03 96 1011.5
20260905135930 23 109 3.2 4.8 0.00 0.03 0.03 97 1011.5
20260905135426 23 149 3.2 4.8 0.00 0.03 0.03 97 1011.3
20260905134921 23 148 1.6 4.8 0.00 0.03 0.03 97 1011.2
20260905134420 23 147 0.0 1.6 0.00 0.03 0.03 98 1011.4
20260905133915 23 136 1.6 4.8 0.00 0.03 0.03 98 1011.3
20260905133415 23 148 0.0 4.8 0.00 0.03 0.03 98 1011.1
20260905132914 23 147 1.6 3.2 0.00 0.03 0.03 98 1011.5
20260905132410 23 148 0.0 3.2 0.00 0.03 0.03 99 1011.3
20260905131905 23 149 3.2 4.8 0.00 0.03 0.03 99 1011.4
20260905131400 23 150 3.2 4.8 0.00 0.03 0.03 99 1011.6
20260905130855 23 149 3.2 4.8 0.00 0.03 0.03 99 1011.6
20260905130354 23 149 1.6 4.8 0.00 0.03 0.03 99 1011.2
20260905125849 23 149 4.8 4.8 0.00 0.03 0.03 99 1010.8
20260905125344 23 150 1.6 3.2 0.00 0.03 0.03 99 1010.7
20260905124840 23 149 0.0 1.6 0.00 0.03 0.03 99 1010.6
20260905124336 23 150 0.0 1.6 0.00 0.03 0.03 99 1010.6
20260905123836 23 149 0.0 1.6 0.00 0.03 0.03 99 1010.4
20260905123333 23 145 1.6 1.6 0.00 0.03 0.03 99 1010.5
20260905122833 23 149 0.0 3.2 0.00 0.03 0.03 99 1010.6
20260905122332 23 149 1.6 1.6 0.00 0.03 0.03 99 1010.5
20260905121827 23 150 0.0 1.6 0.00 0.03 0.03 99 1010.4
20260905121324 23 150 0.0 0.0 0.00 0.03 0.03 99 1010.7
20260905120822 23 149 0.0 0.0 0.00 0.03 0.03 99 1010.5
20260905120317 23 147 0.0 0.0 0.00 0.03 0.03 99 1010.2
20260905115812 23 149 0.0 0.0 0.00 0.03 0.03 99 1010.4
20260905115312 23 148 0.0 0.0 0.00 0.03 0.03 99 1010.4
20260905114812 23 147 0.0 0.0 0.00 0.03 0.03 99 1010.3
20260905114311 23 151 0.0 0.0 0.00 0.03 0.03 99 1010.2
20260905113810 23 147 0.0 0.0 0.00 0.03 0.03 99 1010.0
20260905113306 23 146 0.0 0.0 0.00 0.03 0.03 99 1010.0
20260905112801 23 186 0.0 0.0 0.00 0.03 0.03 99 1010.0
20260905112256 23 147 0.0 0.0 0.00 0.03 0.03 99 1009.9
20260905111750 23 183 0.0 0.0 0.00 0.03 0.03 99 1009.8
20260905111245 23 148 0.0 0.0 0.00 0.03 0.03 99 1009.8
20260905110744 23 147 0.0 1.6 0.00 0.03 0.03 99 1009.8
20260905110238 23 146 0.0 1.6 0.00 0.03 0.03 99 1009.7
20260905105734 23 148 1.6 1.6 0.00 0.03 0.03 99 1009.7
20260905105233 24 149 1.6 3.2 0.00 0.03 0.03 99 1009.6
20260905104728 23 149 0.0 0.0 0.00 0.03 0.03 99 1009.5
20260905104224 23 147 0.0 0.0 0.00 0.03 0.03 99 1009.5
20260905103719 23 162 0.0 0.0 0.00 0.03 0.03 99 1009.5
20260905103215 23 151 0.0 0.0 0.00 0.03 0.03 99 1009.6
20260905102710 23 149 0.0 0.0 0.00 0.03 0.03 99 1009.7
20260905102207 23 186 0.0 0.0 0.00 0.03 0.03 99 1009.4
20260905101706 23 149 0.0 0.0 0.00 0.03 0.03 99 1009.6
20260905101204 24 149 0.0 0.0 0.00 0.03 0.03 99 1009.4
20260905100701 24 147 0.0 0.0 0.00 0.03 0.03 99 1009.5
20260905100155 24 147 0.0 0.0 0.00 0.03 0.03 99 1009.6
20260905095654 24 147 0.0 0.0 0.00 0.03 0.03 99 1009.5
20260905095149 24 152 0.0 0.0 0.00 0.03 0.03 99 1009.4
20260905094644 24 147 0.0 0.0 0.00 0.03 0.03 99 1009.5
20260905094143 24 147 0.0 0.0 0.00 0.03 0.03 99 1009.5
20260905093638 24 145 0.0 0.0 0.00 0.03 0.03 99 1009.7
20260905093135 24 147 0.0 0.0 0.00 0.03 0.03 99 1009.6
20260905092634 24 151 0.0 0.0 0.00 0.03 0.03 99 1009.7
20260905092130 24 147 0.0 0.0 0.00 0.03 0.03 99 1009.5
20260905091630 24 148 0.0 0.0 0.00 0.03 0.03 99 1009.3
20260905091130 24 147 0.0 0.0 0.00 0.03 0.03 99 1009.5
20260905090625 24 147 0.0 0.0 0.00 0.03 0.03 99 1009.3
20260905090120 24 147 0.0 0.0 0.00 0.03 0.03 99 1009.6
20260905085619 24 186 0.0 0.0 0.00 0.03 0.03 99 1009.4
20260905085114 24 151 0.0 0.0 0.18 0.03 0.03 99 1009.4
20260905084614 24 147 0.0 0.0 0.18 0.03 0.03 99 1009.6
20260905084109 24 147 0.0 0.0 0.00 0.00 0.00 99 1009.6
20260905083603 23 145 0.0 0.0 0.00 0.00 0.00 99 1009.3
20260905083100 23 147 0.0 0.0 0.00 0.00 0.00 99 1009.6
20260905082555 23 147 0.0 0.0 0.00 0.00 0.00 99 1009.4
20260905082051 23 186 0.0 0.0 0.00 0.00 0.00 99 1009.6
20260905081550 24 152 0.0 0.0 0.00 0.00 0.00 99 1009.6
20260905081045 23 162 0.0 0.0 0.00 0.00 0.00 99 1009.5
20260905080544 23 147 0.0 0.0 0.00 0.00 0.00 99 1009.5
20260905080039 23 147 0.0 0.0 0.00 0.00 0.00 99 1009.4
20260905075533 24 149 0.0 0.0 0.00 0.00 0.00 99 1009.2
20260905075033 24 152 0.0 0.0 0.00 0.00 0.00 99 1009.6
20260905074527 24 147 0.0 0.0 0.00 0.00 0.00 99 1009.5
20260905074023 24 147 0.0 0.0 0.00 0.00 0.00 99 1009.5
20260905073518 24 186 0.0 0.0 0.00 0.00 0.00 99 1009.5